[[{"header":{"parameterUnit":"m.s-1","parameterCategory":1,"la1":30.2991,"la2":30.254,"lo1":-89.0895,"lo2":-89.0444,"dy":0.0017,"dx":0.0017,"nx":28,"ny":28,"refTime":"2025-07-12T09:00:00:Z","depth":0,"parameterNumber":2,"parameterNumberName":"U-component_of_WINDS"},"data":[0,0,0,0,0,0,0,0,0,0,0,0,0,0,0,0,0,0,0,0,0,0,0,0,0,0,0,0,0,0,0,0,0,0,0,0,0,0,0,0,0,0,0,0,0,0,0,0,0,0,0,0,0,0,0,0,0,0,2.4813,2.4814,0,2.4846,2.4846,2.4846,2.4792,2.479,2.4788,2.4786,2.4821,2.4823,2.4826,0,0,0,0,0,0,0,0,0,0,0,0,0,2.4705,2.4707,2.4813,2.4814,2.4814,2.4846,2.4846,2.4846,2.4792,2.479,2.4787,2.4785,2.482,2.4823,2.4826,0,0,0,0,0,0,0,0,0,0,0,0,0,2.4746,2.4708,2.4813,2.4791,2.4789,2.4845,2.4846,2.4847,2.4792,2.479,2.4787,2.4784,2.4819,2.4823,2.4826,2.4907,0,0,2.4839,2.484,0,0,0,0,0,0,0,0,2.4744,2.475,2.4794,2.4792,2.4791,2.4812,2.482,2.4867,2.4793,2.4791,2.4786,2.4783,2.482,2.4824,2.4836,2.4908,2.491,2.4839,2.4841,2.4843,2.4844,0,0,0,0,0,0,0,2.4741,2.4748,2.4826,2.4794,2.4793,2.4779,2.4782,2.4829,2.4821,2.4791,2.4787,2.4792,2.4819,2.4832,2.4836,2.491,2.4839,2.4842,2.4845,2.4846,2.5047,2.505,0,0,0,0,0,0,2.4741,2.4746,2.4825,2.4827,2.476,2.4783,2.4786,2.4808,2.482,2.4819,2.4794,2.4789,2.4827,2.4832,2.4837,2.4929,2.4843,2.4847,2.4849,2.5044,2.5048,2.5051,0,0,0,0,0,0,2.4739,2.4748,2.4824,2.4786,2.4794,2.4788,2.4813,2.481,2.4823,2.4822,2.4821,2.4809,2.4825,2.4832,2.4889,2.493,2.4849,2.4852,2.5041,2.5045,2.5049,2.5116,0,0,0,0,0,0,2.4736,2.4748,2.4778,2.4787,2.4796,2.4875,2.4815,2.4813,2.483,2.4824,2.4836,2.4836,2.4823,2.4883,2.4893,2.4934,2.4855,2.5037,2.5043,2.5048,2.511,2.5122,2.5132,0,0,0,0,0,2.4732,2.4797,2.478,2.479,2.4834,2.4878,2.4883,2.4867,2.4834,2.4864,2.4863,2.4835,2.4924,2.489,2.49,2.4943,2.5034,2.5041,2.5047,2.5105,2.5119,2.5132,0,0,0,0,0,0,2.4794,2.4798,2.4779,2.4849,2.4863,2.4868,2.4906,2.4884,2.4908,2.4901,2.4881,2.4884,2.4945,2.495,2.4911,2.5019,2.4974,2.4983,2.5014,2.5028,2.5039,2.5035,2.4859,0,0,0,0,0,2.4816,2.4851,2.4852,2.4913,2.4921,2.4913,2.4931,2.4917,2.4931,2.4937,2.4941,2.4956,2.4987,2.5008,2.5037,2.5111,2.5111,2.5145,2.5157,2.5166,2.5173,2.5209,2.5224,2.5073,2.5073,2.5073,0,0,2.4862,2.4868,2.4891,2.4926,2.4935,2.4971,2.4918,2.4959,2.4985,2.4944,2.4997,2.5,2.5016,2.5081,2.511,2.5087,2.5215,2.5174,2.5181,2.5184,2.5218,2.5232,2.5245,2.5077,2.5076,2.5076,0,0,2.4961,2.4971,2.5021,2.5031,2.5046,2.504,2.5052,2.506,2.506,2.5114,2.5083,2.5114,2.5169,2.518,2.5193,2.5296,2.527,2.5306,2.5364,2.5399,2.5411,2.5422,2.5455,2.5468,2.5314,2.5314,2.5314,0,2.5016,2.5068,2.505,2.5092,2.5107,2.5071,2.5121,2.5132,2.5156,2.5167,2.5141,2.5207,2.5216,2.5281,2.5306,2.5319,2.5331,2.5303,2.5411,2.5421,2.5431,2.5463,2.5476,2.5318,2.5318,2.5317,2.5317,0,2.5133,2.5169,2.5208,2.523,2.5251,2.5297,2.5285,2.5307,2.5292,2.5288,2.5341,2.535,2.5379,2.5394,2.538,2.5457,2.5442,2.5414,2.5367,2.5449,2.5479,2.5491,2.5324,2.5322,2.5321,2.532,0,0,2.5272,2.5282,2.5297,2.5305,2.5318,2.5346,2.539,2.5417,2.5436,2.5454,2.5488,2.5535,2.5508,2.5523,2.5511,2.5543,2.562,2.551,2.551,2.5527,2.5702,2.572,2.5735,2.5604,2.5606,2.5608,2.57,0,2.5369,2.5443,2.5427,2.55,2.5532,2.5498,2.5536,2.5548,2.5546,2.5573,2.5571,2.5603,2.5567,2.5575,2.5605,2.5604,2.5654,2.5598,2.5634,2.5636,2.5628,2.5751,2.5771,2.5857,2.5711,2.5713,2.5715,0,2.5491,2.5511,2.5587,2.5593,2.5606,2.564,2.5662,2.5689,2.5702,2.5698,2.5713,2.5694,2.5737,2.5691,2.5748,2.571,2.5725,2.5726,2.5729,2.573,2.5678,2.5752,2.5885,2.5896,2.5733,2.5732,2.5731,0,2.5581,2.5628,2.5678,2.5687,2.5696,2.572,2.5725,2.5735,2.5751,2.5771,2.5781,2.5807,2.582,2.584,2.5827,2.5796,2.5886,2.584,2.5882,2.5882,2.59,2.5899,2.6034,2.5915,2.5915,2.5915,2.5915,0,2.5689,2.5735,2.5718,2.5749,2.58,2.5782,2.5833,2.5834,2.5842,2.5872,2.5846,2.5874,2.5857,2.5885,2.5876,2.5923,2.593,2.5927,2.5923,2.5927,2.5927,2.5934,2.5927,2.5918,2.5917,2.5917,2.5916,0,2.5796,2.5787,2.5839,2.5843,2.5845,2.5882,2.5885,2.5913,2.5909,2.5946,2.5954,2.5948,2.5978,2.5968,2.6002,2.5995,2.6054,2.6045,2.6049,2.6046,2.6087,2.6082,2.6229,2.6246,2.612,2.6121,2.6122,0,2.5864,2.5899,2.5906,2.5923,2.5929,2.5959,2.5975,2.5959,2.5976,2.5992,2.6018,2.6046,2.6067,2.6117,2.6115,2.614,2.6129,2.6179,2.6133,2.6135,2.6126,2.6123,2.6125,2.6187,2.6189,2.619,2.6191,0,2.5984,2.5977,2.6001,2.6023,2.6043,2.606,2.6074,2.609,2.6075,2.6096,2.6126,2.6142,2.6175,2.6203,2.6225,2.623,2.6207,2.6206,2.6216,2.6219,2.6219,2.6216,2.6071,2.6202,2.6201,2.62,2.6199,2.6199,2.6072,2.61,2.6108,2.6135,2.6144,2.6158,2.6183,2.6182,2.6206,2.6231,2.622,2.6254,2.6265,2.6292,2.63,2.6326,2.6306,2.6323,2.6326,2.6329,2.6333,2.6218,2.633,2.633,2.633,2.6329,2.6329,0,2.6187,2.6191,2.6216,2.6236,2.6257,2.6234,2.6249,2.6267,2.6297,2.6309,2.6329,2.6363,2.6389,2.6389,2.6413,2.6434,2.6424,2.644,2.6437,2.6438,2.6351,2.6337,2.6448,2.6448,2.6448,2.6448,2.6448,2.6448,2.625,2.6295,2.6289,2.6338,2.6342,2.6374,2.6384,2.6396,2.6404,2.6442,2.6463,2.6463,2.6469,2.6493,2.6516,2.6515,2.6524,2.6543,2.6539,2.6456,2.6444,2.6433,2.642,2.6546,2.6546,2.6623,2.6624,2.6624]},{"header":{"parameterUnit":"m.s-1","parameterCategory":1,"la1":30.2991,"la2":30.254,"lo1":-89.0895,"lo2":-89.0444,"dy":0.0017,"dx":0.0017,"nx":28,"ny":28,"refTime":"2025-07-12T09:00:00:Z","depth":0,"parameterNumber":3,"parameterNumberName":"V-component_of_WINDS"},"data":[0,0,0,0,0,0,0,0,0,0,0,0,0,0,0,0,0,0,0,0,0,0,0,0,0,0,0,0,0,0,0,0,0,0,0,0,0,0,0,0,0,0,0,0,0,0,0,0,0,0,0,0,0,0,0,0,0,0,2.2661,2.2662,0,2.2792,2.2793,2.2795,2.2819,2.2818,2.2817,2.2816,2.295,2.2954,2.2958,0,0,0,0,0,0,0,0,0,0,0,0,0,2.2431,2.2435,2.2661,2.2663,2.2664,2.2792,2.2794,2.2795,2.2819,2.2818,2.2816,2.2815,2.2948,2.2953,2.2959,0,0,0,0,0,0,0,0,0,0,0,0,0,2.2543,2.2436,2.2661,2.2691,2.2695,2.2791,2.2794,2.2796,2.2819,2.2818,2.2816,2.2814,2.2946,2.2953,2.296,2.3034,0,0,2.2981,2.2984,0,0,0,0,0,0,0,0,2.2537,2.2552,2.2685,2.2689,2.2694,2.2787,2.2762,2.2876,2.282,2.2772,2.2816,2.2814,2.2897,2.2908,2.2936,2.304,2.3046,2.2981,2.2985,2.2988,2.299,0,0,0,0,0,0,0,2.2529,2.2546,2.2713,2.2687,2.2693,2.2698,2.2713,2.2783,2.2842,2.2776,2.2778,2.2793,2.2899,2.2929,2.2939,2.3048,2.2981,2.2987,2.2991,2.2994,2.322,2.3221,0,0,0,0,0,0,2.2516,2.2539,2.2709,2.2717,2.261,2.2704,2.272,2.2759,2.2841,2.2852,2.2795,2.2794,2.2918,2.2931,2.2944,2.3036,2.2988,2.2995,2.2999,2.3218,2.322,2.3222,0,0,0,0,0,0,2.2511,2.2531,2.2703,2.2629,2.2651,2.271,2.2754,2.2763,2.2793,2.2855,2.2866,2.2815,2.2917,2.2934,2.3011,2.3041,2.2998,2.3004,2.3216,2.3218,2.3221,2.3221,0,0,0,0,0,0,2.2504,2.2529,2.2558,2.2629,2.2655,2.2769,2.2755,2.2766,2.2804,2.2805,2.2877,2.2887,2.2917,2.3001,2.3018,2.305,2.3009,2.3213,2.3217,2.322,2.3219,2.3224,2.3228,0,0,0,0,0,2.2496,2.2553,2.2559,2.2579,2.2693,2.2771,2.2785,2.2819,2.2807,2.2836,2.2876,2.2885,2.3035,2.3009,2.3028,2.3062,2.3211,2.3216,2.322,2.3217,2.3223,2.3228,0,0,0,0,0,0,2.2484,2.2563,2.2571,2.2653,2.2705,2.2774,2.2813,2.2824,2.2881,2.2879,2.2918,2.2935,2.3009,2.3044,2.3013,2.3138,2.3122,2.3131,2.3113,2.312,2.3124,2.3114,2.3015,0,0,0,0,0,2.249,2.2547,2.2613,2.2679,2.2705,2.2754,2.2789,2.2811,2.2866,2.2889,2.2934,2.2988,2.3047,2.3085,2.3143,2.3224,2.324,2.3257,2.3261,2.3265,2.3272,2.3317,2.3325,2.3236,2.3236,2.3236,0,0,2.2505,2.2555,2.2589,2.2678,2.2721,2.2778,2.2773,2.2834,2.2877,2.2898,2.2974,2.3009,2.3071,2.315,2.3187,2.3181,2.33,2.327,2.3272,2.3278,2.3322,2.333,2.3337,2.3239,2.3238,2.3238,0,0,2.2562,2.2606,2.2665,2.2708,2.2773,2.2805,2.2819,2.2887,2.2912,2.2988,2.3004,2.3056,2.3157,2.3201,2.3236,2.3308,2.3318,2.3326,2.335,2.3393,2.34,2.3406,2.3432,2.344,2.3332,2.3332,2.3332,0,2.2572,2.266,2.2694,2.2755,2.2793,2.2814,2.2875,2.2915,2.2995,2.3021,2.3012,2.314,2.3183,2.3272,2.329,2.3318,2.3335,2.3318,2.3396,2.3403,2.3409,2.3434,2.3443,2.3333,2.3333,2.3333,2.3333,0,2.2669,2.273,2.277,2.2847,2.289,2.295,2.2993,2.3032,2.3049,2.3082,2.316,2.3212,2.3281,2.3304,2.3321,2.3396,2.339,2.3388,2.3373,2.3418,2.3442,2.3451,2.3333,2.3333,2.3333,2.3333,0,0,2.2723,2.2817,2.2831,2.2866,2.2939,2.2986,2.3047,2.3114,2.3147,2.3201,2.3253,2.3337,2.3336,2.3376,2.3399,2.3437,2.349,2.3431,2.3433,2.344,2.3575,2.3575,2.3586,2.3497,2.3499,2.35,2.3569,0,2.2788,2.2897,2.2929,2.3021,2.3077,2.3097,2.315,2.32,2.3232,2.3284,2.332,2.3379,2.3374,2.3398,2.3436,2.3475,2.3518,2.3471,2.3545,2.3547,2.3529,2.3598,2.36,2.3662,2.3579,2.3581,2.3582,0,2.2879,2.2934,2.3032,2.3096,2.3121,2.3168,2.3232,2.3281,2.3338,2.3359,2.3403,2.3422,2.3486,2.3467,2.3555,2.3522,2.3555,2.3578,2.3582,2.359,2.3567,2.3609,2.3683,2.3693,2.3597,2.3596,2.3595,0,2.2908,2.3007,2.3078,2.3107,2.3185,2.3217,2.3251,2.3306,2.3344,2.34,2.3425,2.3487,2.3521,2.3568,2.3604,2.3586,2.3689,2.3672,2.3708,2.3707,2.3729,2.3727,2.3809,2.3749,2.3749,2.3748,2.3748,0,2.2977,2.3036,2.3092,2.3136,2.3202,2.3238,2.3302,2.3337,2.3386,2.3436,2.3457,2.3504,2.3548,2.36,2.3628,2.3697,2.3712,2.3731,2.3737,2.3729,2.3727,2.3751,2.3748,2.3751,2.375,2.375,2.375,0,2.3021,2.3061,2.314,2.3206,2.3224,2.327,2.3327,2.337,2.3402,2.3466,2.3483,2.3534,2.3597,2.3637,2.3717,2.3736,2.3811,2.3816,2.3792,2.3795,2.3828,2.3824,2.3929,2.3945,2.3873,2.3874,2.3875,0,2.3063,2.3109,2.318,2.3215,2.3249,2.3306,2.3344,2.3381,2.3421,2.3488,2.3523,2.3587,2.3641,2.374,2.3785,2.3846,2.3853,2.3885,2.3862,2.3852,2.3853,2.385,2.3855,2.3889,2.389,2.389,2.3891,0,2.3133,2.315,2.3205,2.3267,2.3313,2.3363,2.3414,2.3441,2.3487,2.353,2.3595,2.3636,2.3717,2.3781,2.3846,2.388,2.3893,2.3897,2.3909,2.3901,2.3885,2.3894,2.3802,2.3895,2.3895,2.3894,2.3894,2.3894,2.3178,2.3219,2.3275,2.3335,2.3377,2.3424,2.3467,2.3505,2.3559,2.3628,2.3647,2.3714,2.3769,2.3858,2.3894,2.3947,2.3942,2.3959,2.3963,2.3967,2.3967,2.3876,2.3959,2.3958,2.3958,2.3958,2.3958,0,2.3249,2.3286,2.3341,2.341,2.3458,2.3465,2.3521,2.356,2.3619,2.367,2.3722,2.3795,2.3857,2.3906,2.3969,2.4002,2.4009,2.4017,2.4015,2.4023,2.3967,2.3951,2.401,2.401,2.401,2.401,2.401,2.401,2.3291,2.3361,2.3385,2.3476,2.3512,2.3578,2.361,2.3652,2.3693,2.3774,2.3825,2.3856,2.3906,2.3973,2.4029,2.4042,2.4064,2.4071,2.4085,2.4032,2.4027,2.4021,2.4006,2.4076,2.4076,2.4136,2.4137,2.4137]}]]